CST,Max TemperatureF,Mean TemperatureF,Min TemperatureF,Max Dew PointF,MeanDew PointF,Min DewpointF,Max Humidity, Mean Humidity, Min Humidity, Max Sea Level PressureIn, Mean Sea Level PressureIn, Min Sea Level PressureIn, Max VisibilityMiles, Mean VisibilityMiles, Min VisibilityMiles, Max Wind SpeedMPH, Mean Wind SpeedMPH, Max Gust SpeedMPH,PrecipitationIn, CloudCover, Events, WindDirDegrees
2012-11-1,51,38,24,30,23,15,92,56,37,30.01,29.92,29.86,10,10,10,17,8,21,0.00,5,,306
2012-11-2,46,34,21,28,22,19,93,71,34,30.19,30.12,30.03,10,10,10,6,3,,0.00,2,,306
2012-11-3,46,36,29,28,26,25,86,68,46,30.28,30.24,30.19,10,10,10,8,3,,0.00,7,,86
2012-11-4,48,36,22,28,26,20,93,77,46,30.29,30.24,30.19,10,10,10,8,2,,0.00,4,,112
2012-11-5,42,30,17,28,20,15,95,87,53,30.27,30.23,30.10,10,6,1,6,1,,0.00,1,,142
2012-11-6,35,33,31,34,32,28,100,90,74,30.06,29.91,29.80,10,5,1,10,6,,0.23,8,Snow,162
2012-11-7,37,35,33,34,33,32,100,93,81,30.16,30.09,29.93,10,8,2,7,4,,0.00,8,,351
2012-11-8,51,39,27,36,33,27,96,80,54,30.15,30.09,30.00,10,10,7,13,7,20,0.00,3,,169
2012-11-9,50,40,31,43,39,30,97,85,66,30.09,30.04,30.01,10,8,6,13,5,,0.00,7,Rain,93
2012-11-10,67,56,44,54,47,41,93,79,50,30.01,29.83,29.67,10,8,5,18,12,29,0.00,4,,131
2012-11-11,65,46,27,55,49,22,100,88,50,29.94,29.70,29.64,10,6,1,18,11,26,0.69,7,Rain-Snow-Thunderstorm,233
2012-11-12,27,24,22,21,16,13,86,69,59,30.32,30.11,29.95,10,9,0,20,15,26,0.00,6,Snow,261
2012-11-13,39,26,12,23,17,10,93,70,42,30.47,30.42,30.34,10,10,10,8,3,,0.00,3,,196
2012-11-14,50,42,33,30,27,21,65,58,43,30.41,30.34,30.28,10,10,10,12,7,,0.00,5,,164
2012-11-15,53,40,26,32,29,25,93,66,41,30.40,30.29,30.23,10,10,10,10,5,,0.00,2,,230
2012-11-16,44,30,17,34,26,16,100,91,57,30.52,30.47,30.42,10,5,0,7,5,,0.00,0,Fog,103
2012-11-17,53,38,23,41,30,23,100,89,47,30.49,30.44,30.39,10,3,0,13,5,17,0.00,3,Fog,128
2012-11-18,59,44,28,34,31,27,92,62,34,30.38,30.30,30.25,10,10,5,15,8,,0.00,2,,138
2012-11-19,48,44,39,41,37,32,93,78,64,30.24,30.14,30.07,10,9,5,8,4,,0.03,7,Rain,112
2012-11-20,57,42,26,43,33,27,100,95,59,30.17,30.14,30.08,10,2,0,8,1,,0.00,2,Fog,284
2012-11-21,61,42,24,46,30,23,100,92,49,30.16,30.12,29.91,10,3,0,13,3,18,0.00,1,Fog,140
2012-11-22,63,48,33,45,37,23,71,62,49,29.89,29.76,29.64,10,10,10,29,14,38,0.00,3,,224
2012-11-23,33,28,23,23,15,13,69,64,59,30.29,30.10,29.83,10,10,10,25,20,39,0.00,7,Snow,301
2012-11-24,30,24,19,18,14,11,74,64,52,30.29,30.19,29.88,10,10,10,14,9,,0.00,6,Snow,291
2012-11-25,37,28,18,21,19,15,88,68,48,30.13,29.93,29.83,10,10,10,17,6,22,0.00,4,,270
2012-11-26,27,16,3,21,11,1,92,67,37,30.43,30.29,30.14,10,10,10,14,6,21,0.00,4,,307
2012-11-27,33,18,3,14,9,0,87,62,41,30.41,30.29,30.16,10,10,10,12,4,,0.00,4,Snow,212
2012-11-28,37,24,12,21,17,10,93,74,52,30.38,30.29,30.18,10,10,10,8,5,,0.00,3,,252
2012-11-29,46,34,21,30,26,18,87,72,50,30.18,30.13,30.06,10,10,10,13,4,,0.00,5,,102
2012-11-30,36,33,30,34,31,28,100,90,81,30.21,30.17,30.12,10,7,2,13,9,18,0.00,8,,79